Flag for Germany Weather past 2 weeks in Bramsche, Lower Saxony, Germany

Now
61 °F

Overcast.


Feels Like: 61 °F
Forecast: 51 / 59 °F
Wind: 8 mph from Southwest

Location: Muenster / Osnabrueck

Current Time: Sep 4, 2015 at 2:56:25 PM

Latest Report: Sep 4, 2015 at 2:00 PM


Visibility: 19 mi

Pressure: 29.91 "Hg

Humidity: 63%

Dew point: 49 °F

Location of BramscheLocation

Historic Weather in Bramsche — Graph

°F

Bramsche temperature yesterday

Maximum temperature yesterday: 63 °F (at 5:00 PM)
Minimum temperature yesterday: 52 °F (at 8:00 AM)
Average temperature yesterday: 57 °F

Past Weeks' High & Low Weather Summary

 TemperatureHumidityPressure
High88 °F (Aug 31, 5:00 PM)100% (Aug 29, 6:00 AM)30.27 "Hg (Aug 29, 6:00 AM)
Low50 °F (Aug 29, 4:00 AM)34% (Aug 22, 5:00 PM)29.54 "Hg (Aug 24, 6:00 PM)
Average65 °F72%29.96 "Hg
* Reported Aug 20 2:00 PM — Sep 4 2:00 PM, Bramsche, Weather by CustomWeather, © 2015

Note: Actual official high and low records may vary slightly from our data, if they occured in-between our weather recording intervals... More about our weather records

Advertising

Bramsche weather history for previous 24 hours

 ConditionsComfort  
Time TempWeatherWind HumidityBarometerVisibility
2:00 PM
Fri, Sep 4
61 °FOvercast.8 mph63%29.91 "Hg19 mi
1:00 PM61 °FScattered clouds.8 mph63%29.91 "Hg19 mi
12:00 PM61 °FPartly sunny.8 mph64%29.92 "Hg12 mi
11:00 AM58 °FPartly sunny.7 mph69%29.92 "Hg12 mi
10:00 AM56 °FScattered clouds.5 mph75%29.92 "Hg9 mi
9:00 AM54 °FScattered clouds.5 mph83%29.92 "Hg6 mi
8:00 AM52 °FFog.5 mph91%29.92 "Hg4 mi
7:00 AM51 °FPassing clouds.3 mph93%29.92 "Hg6 mi
5:00 AM52 °FOvercast.3 mph91%29.93 "Hg7 mi
4:00 AM53 °FOvercast.3 mph91%29.93 "Hg7 mi
3:00 AM53 °FOvercast.3 mph90%29.93 "Hg16 mi
2:00 AM54 °FOvercast.2 mph87%29.94 "Hg16 mi
1:00 AM55 °FOvercast.3 mph82%29.94 "Hg16 mi
11:00 PM
Thu, Sep 3
56 °FOvercast.3 mph78%29.94 "Hg16 mi
10:00 PM56 °FOvercast.2 mph76%29.94 "Hg19 mi
9:00 PM58 °FOvercast.3 mph72%29.93 "Hg16 mi
8:00 PM58 °FOvercast.3 mph71%29.93 "Hg16 mi
7:00 PM59 °FPartly sunny.3 mph72%29.93 "Hg16 mi
6:00 PM60 °FPartly sunny.6 mph70%29.92 "Hg19 mi
5:00 PM63 °FPartly sunny.5 mph61%29.92 "Hg19 mi
4:00 PM63 °FPartly sunny.6 mph57%29.92 "Hg25 mi
3:00 PM63 °FPartly sunny.3 mph61%29.92 "Hg16 mi
2:00 PM63 °FPartly sunny.5 mph64%29.93 "Hg19 mi
Weather by CustomWeather, © 2015

See weather overviewHow to use our weather pages